Location: Belvedere Heights
(33.9836°N, 117.3109°W)
Time: 10:31:10
(UTC+00:00)

Daily predictions for brighter satellites

Satellite Brightness Start Highest point End
(mag) Time Altitude Azimuth Time Altitude Azimuth Time Altitude Azimuth
GEOS 3 Rocket 3.9 12:04:48 10° SSE 12:09:12 44° SW 12:09:12 44° SW
CZ-2D R/B 3.7 12:06:06 10° NNE 12:10:24 71° ESE 12:13:06 21° S
Envisat 3.0 12:07:11 10° N 12:12:10 57° WNW 12:13:26 44° SW
IRS-1C 4.0 12:08:05 10° N 12:13:23 68° WNW 12:16:06 29° SSW
OAO 3 Rocket 3.2 12:12:30 49° WNW 12:13:48 78° N 12:18:45 10° E
Cosmos 2221 3.8 12:16:29 26° NW 12:16:29 26° NW 12:18:57 10° NNW
Cosmos 1242 Rocket 2.6 12:13:39 10° N 12:17:06 70° E 12:20:32 10° SSE
Cosmos 923 Rocket 3.8 12:15:01 28° SSW 12:17:48 79° WNW 12:23:01 10° NNE
Cosmos 2154 Rocket 4.1 12:11:35 10° S 12:17:54 80° E 12:24:12 10° N
H-2A R/B 2.6 12:14:59 10° NNE 12:18:37 76° ESE 12:20:26 27° S
CZ-2C R/B 3.7 12:20:38 27° WNW 12:20:38 27° WNW 12:23:53 10° NW
CZ-2C R/B 4.0 12:15:26 10° NNW 12:17:26 18° NW 12:17:26 18° NW
H-2A R/B 4.4 12:22:03 10° NE 12:25:51 22° E 12:29:38 10° SE
Cosmos 1408 Rocket 3.6 12:22:07 10° N 12:26:35 82° E 12:31:00 10° S
Cosmos 1680 Rocket 3.4 12:24:00 13° SSW 12:28:40 86° WNW 12:33:56 10° NNE
ATLAS CENTAUR R/B 3.0 12:31:23 21° NW 12:31:28 21° NW 12:34:53 10° N
GP-B 4.1 12:29:20 10° NNE 12:33:37 49° E 12:37:53 10° SSE
Cosmos 807 4.2 12:33:34 51° WSW 12:33:51 53° W 12:36:43 10° N
Cosmos 1743 Rocket 4.5 12:31:08 10° N 12:35:29 52° E 12:39:50 10° SSE
DMSP B5D2-2 4.5 12:30:35 10° SSE 12:35:47 67° ENE 12:40:58 10° N
Meteor 1-5 Rocket 4.2 12:30:48 10° N 12:36:29 83° W 12:42:20 10° S
Cosmos 2112 Rocket 3.9 12:31:37 10° SSW 12:36:48 85° WNW 12:42:03 10° NNE
Cosmos 1939 Rocket 4.3 12:35:18 10° NNE 12:39:06 40° E 12:42:55 10° S
Cosmos 1842 Rocket 4.4 12:39:13 28° W 12:39:57 29° WNW 12:43:50 10° NNW
Nadezhda 3 Rocket 4.1 12:35:15 10° N 12:41:33 83° E 12:47:52 10° S
ARIANE 5 R/B 3.0 12:38:22 10° N 12:43:07 38° WNW 12:46:53 15° SW
Cosmos 1610 Rocket 4.4 12:37:55 10° SSW 12:44:01 73° W 12:50:10 10° N
Spot 4 Rocket 4.0 12:40:26 10° NNE 12:45:36 88° W 12:50:44 10° SSW
Hubble Space Telescope 2.2 12:48:47 18° SW 12:50:14 22° SSW 12:53:24 10° SE
PSLV R/B 3.6 12:46:17 10° NNE 12:50:32 80° ESE 12:54:47 10° S
Sich 1 3.9 12:46:37 10° N 12:50:57 55° E 12:55:15 10° SSE
Cosmos 1484 Rocket 4.4 12:52:55 10° NNW 12:55:08 16° WNW 12:55:08 16° WNW
SL-4 R/B 1.8 12:52:41 12° NW 12:56:08 59° SW 12:59:42 10° SSE
COSMO-SKYMED 1 3.4 12:52:25 10° SSE 12:56:38 55° ENE 13:00:53 10° N
CZ-2C R/B 4.5 12:53:58 10° NNW 12:56:40 15° WNW 12:57:22 15° WNW
USA 32 4.1 12:55:18 10° N 13:00:34 83° E 13:05:49 10° S
DELTA 2 R/B (1) 3.6 12:56:24 16° WSW 13:00:53 80° NNW 13:06:32 10° ENE
USA 234 3.4 12:54:51 10° NE 13:01:16 59° NW 13:07:40 10° WSW
Cosmos 405 Rocket 4.4 12:58:03 10° SSE 13:01:24 35° E 13:04:44 10° NNE
IKONOS-2 4.5 12:57:18 10° SSE 13:01:32 88° W 13:05:46 10° NNW
SJ-12 3.8 13:00:36 10° N 13:04:37 74° WNW 13:08:35 10° SSW
Meteor 1-14 Rocket 4.1 12:59:46 10° NNW 13:05:15 70° W 13:10:47 10° S
Meteor 1-10 Rocket 4.3 13:01:50 10° S 13:07:42 82° W 13:13:39 10° N
Cosmos 1900 4.3 13:05:50 10° NW 13:10:37 57° WSW 13:15:24 10° SSE
Cosmos 1500 Rocket 3.8 13:07:08 10° NNW 13:11:14 44° W 13:15:20 10° SSW
Atlas Centaur 2 4.4 13:08:31 11° WSW 13:13:23 18° SW 13:18:19 10° S
Cosmos 1420 Rocket 4.4 13:10:39 10° N 13:15:48 67° ENE 13:20:57 10° SSE
CZ-2C R/B 0.9 13:12:27 12° W 13:15:50 73° SSW 13:19:17 10° ESE
Cosmos 1805 Rocket 3.6 13:12:27 10° NNW 13:16:48 59° W 13:21:09 10° S
Cosmos 2366 rocket 4.3 13:11:41 10° S 13:17:48 74° E 13:24:01 10° N
BlueWalker 3 2.1 13:16:45 10° NW 13:20:34 73° NE 13:24:23 10° SE
Lacrosse 5 rocket 2.0 13:19:16 10° WNW 13:22:20 27° WSW 13:25:22 10° S
Cosmos 1378 3.5 13:19:10 10° S 13:22:43 68° E 13:26:17 10° NNE
Meteor 1-29 2.6 13:21:56 10° N 13:24:59 66° WNW 13:28:03 10° SSW
Helios 1B rocket 4.2 13:24:54 10° NW 13:27:00 14° WNW 13:29:07 10° W
Cosmos 1328 Rocket 3.8 13:23:01 10° S 13:27:20 75° E 13:31:39 10° N
USA 281 3.5 13:21:10 10° S 13:27:20 44° WSW 13:33:34 10° NW
